When you browse on this site, cookies collect data to enhance your experience and personalize the content and advertising you see.
Visit our Privacy Policy to learn more. By continuing to use the site, you agree to this use of cookies and data.
  • In Hungary
  • List of Countries
  • For 7 days
  • Water Temperature
  • Satellite Maps
  • Weather Map
  • News
  • Weather Widgets
  • user-avatar
    Login

    Hourly Weather Bobrowce

    Today, 10 December, Monday

    Time Temperature Precipitation Wind Pressure Humidity
    00:00 +3°C° 0.2 mm 5 mps 731 mmHg 86%
    01:00 +4°C° 0 mm 4 mps 731 mmHg 87%
    02:00 +3°C° 0.4 mm 5 mps 731 mmHg 86%
    03:00 +3°C° 0.4 mm 5 mps 731 mmHg 85%
    04:00 +3°C° 0.4 mm 6 mps 731 mmHg 83%
    05:00 +3°C° 0.4 mm 6 mps 732 mmHg 83%
    06:00 +3°C° 0.4 mm 6 mps 732 mmHg 82%
    07:00 +2°C° 0.4 mm 7 mps 733 mmHg 81%
    08:00 +2°C° 0.4 mm 7 mps 733 mmHg 79%
    09:00 +2°C° 0.4 mm 7 mps 734 mmHg 76%
    10:00 +1°C° 0.4 mm 8 mps 735 mmHg 74%
    11:00 +1°C° 0.1 mm 8 mps 735 mmHg 71%
    12:00 +2°C° 0.1 mm 7 mps 735 mmHg 69%
    13:00 +2°C° 0.1 mm 7 mps 736 mmHg 67%
    14:00 +2°C° 0.1 mm 6 mps 736 mmHg 68%
    15:00 +2°C° 0.1 mm 6 mps 737 mmHg 70%
    16:00 +1°C° 0.1 mm 5 mps 737 mmHg 71%
    17:00 +1°C° 0.1 mm 5 mps 737 mmHg 73%
    18:00 +1°C° 0.1 mm 5 mps 738 mmHg 75%
    19:00 0°C° 0.1 mm 5 mps 738 mmHg 76%
    20:00 0°C° 0.1 mm 5 mps 738 mmHg 78%
    21:00 0°C° 0.1 mm 5 mps 738 mmHg 79%
    22:00 0°C° 0.1 mm 5 mps 738 mmHg 80%
    23:00 -1°C° 0 mm 5 mps 738 mmHg 82%

    Tomorrow, 11 December, Tuesday

    Time Temperature Precipitation Wind Pressure Humidity
    00:00 -1°C° 0 mm 4 mps 739 mmHg 83%
    01:00 -1°C° 0 mm 4 mps 739 mmHg 85%
    02:00 -2°C° 0 mm 4 mps 739 mmHg 86%
    03:00 -2°C° 0 mm 4 mps 739 mmHg 88%
    04:00 -2°C° 0 mm 4 mps 739 mmHg 89%
    05:00 -2°C° 0 mm 4 mps 739 mmHg 90%
    06:00 -1°C° 0 mm 3 mps 739 mmHg 90%
    07:00 -1°C° 0 mm 3 mps 739 mmHg 91%
    08:00 0°C° 0 mm 3 mps 739 mmHg 88%
    09:00 0°C° 0 mm 3 mps 739 mmHg 85%
    10:00 0°C° 0 mm 4 mps 739 mmHg 82%
    11:00 +1°C° 0 mm 3 mps 739 mmHg 82%
    12:00 +1°C° 0 mm 3 mps 740 mmHg 82%
    13:00 +2°C° 0 mm 3 mps 740 mmHg 82%
    14:00 +2°C° 0 mm 2 mps 740 mmHg 84%
    15:00 +2°C° 0 mm 2 mps 740 mmHg 86%
    16:00 +2°C° 0 mm 2 mps 740 mmHg 88%
    17:00 +2°C° 0 mm 2 mps 741 mmHg 89%
    18:00 +1°C° 0 mm 2 mps 741 mmHg 90%
    19:00 +1°C° 0 mm 2 mps 741 mmHg 90%
    20:00 +1°C° 0 mm 2 mps 741 mmHg 91%
    21:00 +1°C° 0 mm 2 mps 742 mmHg 92%
    22:00 +1°C° 0 mm 2 mps 742 mmHg 92%
    23:00 -1°C° 0 mm 2 mps 742 mmHg 92%

    Day after tomorrow, 12 December, Wednesday

    Time Temperature Precipitation Wind Pressure Humidity
    00:00 -1°C° 0 mm 2 mps 743 mmHg 93%
    01:00 -1°C° 0 mm 2 mps 743 mmHg 93%
    02:00 -1°C° 0.1 mm 2 mps 743 mmHg 93%
    03:00 -1°C° 0.1 mm 3 mps 744 mmHg 92%
    04:00 -1°C° 0.1 mm 3 mps 744 mmHg 92%
    05:00 -1°C° 0.1 mm 3 mps 744 mmHg 92%
    06:00 -2°C° 0.1 mm 3 mps 745 mmHg 92%
    07:00 -2°C° 0.1 mm 3 mps 745 mmHg 92%
    08:00 -1°C° 0 mm 3 mps 746 mmHg 90%
    09:00 -1°C° 0 mm 3 mps 746 mmHg 87%
    10:00 -1°C° 0 mm 3 mps 746 mmHg 85%
    11:00 0°C° 0 mm 3 mps 746 mmHg 83%
    12:00 +1°C° 0 mm 2 mps 747 mmHg 81%
    13:00 +1°C° 0 mm 2 mps 747 mmHg 79%
    14:00 +1°C° 0 mm 2 mps 747 mmHg 82%
    15:00 -1°C° 0 mm 2 mps 747 mmHg 85%
    16:00 -2°C° 0 mm 2 mps 747 mmHg 88%
    17:00 -2°C° 0 mm 2 mps 747 mmHg 89%
    18:00 -2°C° 0 mm 2 mps 748 mmHg 89%
    19:00 -3°C° 0 mm 2 mps 748 mmHg 90%
    20:00 -3°C° 0 mm 2 mps 748 mmHg 90%
    21:00 -3°C° 0 mm 2 mps 748 mmHg 90%
    22:00 -1°C° 0 mm 1 mps 748 mmHg 90%
    23:00 -3°C° 0 mm 2 mps 748 mmHg 90%

    13 December, Thursday

    Time Temperature Precipitation Wind Pressure Humidity
    00:00 -3°C° 0 mm 2 mps 748 mmHg 90%
    01:00 -3°C° 0 mm 2 mps 748 mmHg 91%
    02:00 -3°C° 0 mm 2 mps 748 mmHg 91%
    03:00 -3°C° 0 mm 2 mps 748 mmHg 91%
    04:00 -2°C° 0 mm 2 mps 748 mmHg 91%
    05:00 -2°C° 0 mm 2 mps 748 mmHg 91%
    06:00 -2°C° 0 mm 2 mps 748 mmHg 91%
    07:00 -2°C° 0 mm 3 mps 748 mmHg 91%
    08:00 -2°C° 0 mm 3 mps 748 mmHg 90%
    09:00 -2°C° 0 mm 3 mps 748 mmHg 88%
    10:00 -1°C° 0 mm 3 mps 748 mmHg 87%
    11:00 -1°C° 0.1 mm 3 mps 747 mmHg 85%
    12:00 -1°C° 0.1 mm 3 mps 747 mmHg 84%
    13:00 -1°C° 0.1 mm 3 mps 747 mmHg 83%
    14:00 -1°C° 0.1 mm 3 mps 747 mmHg 84%
    15:00 -1°C° 0.1 mm 3 mps 747 mmHg 86%
    16:00 -1°C° 0.1 mm 2 mps 747 mmHg 87%
    17:00 -2°C° 0 mm 2 mps 747 mmHg 87%
    18:00 -2°C° 0 mm 2 mps 747 mmHg 88%
    19:00 -2°C° 0 mm 2 mps 748 mmHg 88%
    20:00 -2°C° 0 mm 2 mps 748 mmHg 89%
    21:00 -2°C° 0 mm 2 mps 748 mmHg 89%
    22:00 -2°C° 0 mm 2 mps 748 mmHg 90%
    23:00 -2°C° 0 mm 2 mps 749 mmHg 90%

    14 December, Friday

    Time Temperature Precipitation Wind Pressure Humidity
    00:00 -2°C° 0 mm 2 mps 749 mmHg 90%
    01:00 0°C° 0 mm 1 mps 749 mmHg 90%
    02:00 0°C° 0 mm 1 mps 749 mmHg 91%
    03:00 0°C° 0 mm 1 mps 749 mmHg 91%
    04:00 0°C° 0 mm 1 mps 749 mmHg 92%
    05:00 0°C° 0 mm 1 mps 750 mmHg 91%
    06:00 0°C° 0 mm 1 mps 750 mmHg 91%
    07:00 0°C° 0 mm 1 mps 751 mmHg 91%
    08:00 0°C° 0 mm 1 mps 751 mmHg 90%
    09:00 0°C° 0 mm 1 mps 752 mmHg 88%
    10:00 +1°C° 0 mm 1 mps 752 mmHg 87%
    11:00 +1°C° 0 mm 1 mps 752 mmHg 86%
    12:00 +1°C° 0 mm 1 mps 752 mmHg 85%
    13:00 +2°C° 0 mm 1 mps 753 mmHg 84%
    14:00 +1°C° 0 mm 1 mps 753 mmHg 86%
    15:00 +1°C° 0 mm 1 mps 753 mmHg 88%
    16:00 0°C° 0 mm 1 mps 754 mmHg 90%
    17:00 0°C° 0 mm 1 mps 754 mmHg 90%
    18:00 0°C° 0 mm 1 mps 754 mmHg 90%
    19:00 -2°C° 0 mm 2 mps 755 mmHg 90%
    20:00 -2°C° 0 mm 2 mps 755 mmHg 90%
    21:00 -2°C° 0 mm 2 mps 755 mmHg 89%
    22:00 -2°C° 0 mm 2 mps 755 mmHg 89%
    23:00 0°C° 0 mm 1 mps 756 mmHg 88%

    15 December, Saturday

    Time Temperature Precipitation Wind Pressure Humidity
    00:00 0°C° 0 mm 1 mps 756 mmHg 88%
    01:00 0°C° 0 mm 1 mps 756 mmHg 88%
    02:00 0°C° 0 mm 1 mps 756 mmHg 87%
    03:00 -2°C° 0 mm 2 mps 756 mmHg 87%
    04:00 -2°C° 0 mm 2 mps 756 mmHg 86%
    05:00 -2°C° 0 mm 2 mps 757 mmHg 86%
    06:00 -2°C° 0 mm 2 mps 757 mmHg 87%
    07:00 -2°C° 0 mm 2 mps 757 mmHg 87%
    08:00 -2°C° 0 mm 2 mps 758 mmHg 85%
    09:00 -2°C° 0 mm 2 mps 758 mmHg 83%
    10:00 -1°C° 0 mm 3 mps 758 mmHg 82%
    11:00 -1°C° 0 mm 3 mps 758 mmHg 79%
    12:00 -1°C° 0 mm 3 mps 758 mmHg 77%
    13:00 -1°C° 0 mm 3 mps 758 mmHg 75%
    14:00 -1°C° 0 mm 3 mps 758 mmHg 77%
    15:00 -2°C° 0 mm 2 mps 758 mmHg 80%
    16:00 -2°C° 0 mm 2 mps 758 mmHg 82%
    17:00 -3°C° 0 mm 2 mps 759 mmHg 84%
    18:00 -3°C° 0 mm 2 mps 759 mmHg 85%
    19:00 -3°C° 0 mm 2 mps 759 mmHg 87%
    20:00 -3°C° 0 mm 2 mps 759 mmHg 88%
    21:00 -4°C° 0 mm 3 mps 760 mmHg 89%
    22:00 -4°C° 0 mm 3 mps 760 mmHg 89%
    23:00 -4°C° 0 mm 3 mps 760 mmHg 90%
    Show more